Weather in Fuerte Olimpo

Paraguay     21°02′05″S   57°52′30″W
temp.,
°C
wind,
m/s
gust,
m/s
humid.,
%
clouds,
%
prec.,
mm/h
press.,
hPa
HPBL,
m
16 april, fri
fri1623:00+24ne22620 0.0 101024
02:00+23nne12650 0.0 101012
05:00+22ne22672 0.0 101021
08:00+28nne24520 0.1 1012295
11:00+35nne33340 0.0 10112057
14:00+38n2324100 0.0 10073796
17:00+33wnw253578 0.0 1007155
20:00+25sse22656 0.1 100931
17 april, sat
sat1723:00+23s12774 0.4 101012
02:00+21ne11895 1.3 101014
05:00+21ne38924 0.0 1010201
08:00+25nne24755 0.0 1013276
11:00+33n234071 0.0 10121230
14:00+37nw113032 0.0 10082628
17:00+33wsw23397 0.0 100791
20:00+23e118151 1.1 100911
18 april, sun
sun1823:00+22se22865 2.6 101014
02:00+22sw009038 2.6 101011
05:00+21ene119360 0.0 101016
08:00+24ene238470 0.4 1013241
11:00+33nne124240 0.0 10121224
14:00+37nw113217 0.0 10082431
17:00+32wsw234473 0.1 100777
20:00+25n017617 0.4 100913
19 april, mon
mon1923:00+24wnw3782100 0.4 1010185
02:00+22wsw1186100 0.4 101021
05:00+21ene1192100 0.3 101111
08:00+25nne127822 0.4 1013237
11:00+34nnw22415 0.0 10121388
14:00+37nne113151 0.0 10082795
17:00+32ne013910 0.0 100711
20:00+25ne27690 0.1 1009121
20 april, tue
tue2023:00+23nnw11720 0.0 101013
02:00+23ene22743 0.0 100926
05:00+22ene22760 0.0 101040
08:00+28nne23550 0.0 1011303
11:00+35n24340 0.0 10102117
14:00+37n322534 0.0 10063613
17:00+34nnw243096 0.0 1005131
20:00+28nne24441 0.0 100762